Sigfox identifier Datetime Temperature Humidity SNR
003A58DE 2019-04-23 14:44:43 16.3 29 24.5
003A58DE 2019-04-23 14:13:13 16.3 29 24.6
003A58DE 2019-04-23 13:41:43 16.1 29 24.5
003A58DE 2019-04-23 13:10:12 16 29 24.5
003A58DE 2019-04-23 12:38:42 16 29 24.5
003A58DE 2019-04-23 12:07:12 15.9 29 24.5
003A58DE 2019-04-23 11:35:41 15.8 28 24.5
003A58DE 2019-04-23 11:04:10 15.8 28 24.4
003A58DE 2019-04-23 10:32:39 15.8 28 24.2
003A58DE 2019-04-23 10:01:10 15.8 28 24.3
003A58DE 2019-04-23 09:29:38 15.8 28 24.2
003A58DE 2019-04-23 08:58:09 15.8 28 24
003A58DE 2019-04-23 08:26:38 15.8 28 23.9
003A58DE 2019-04-23 07:55:09 15.8 28 23.8
003A58DE 2019-04-23 07:23:39 15.8 28 23.9
003A58DE 2019-04-23 06:52:09 15.8 28 24
003A58DE 2019-04-23 06:20:44 15.8 28 24
003A58DE 2019-04-23 05:49:10 15.8 28 24.2
003A58DE 2019-04-23 05:17:40 15.8 28 23.1
003A58DE 2019-04-23 04:46:11 15.8 28 23
003A58DE 2019-04-23 04:14:41 15.8 28 23.3
003A58DE 2019-04-23 03:43:12 15.8 28 23.3
003A58DE 2019-04-23 03:11:42 15.8 28 23.9
003A58DE 2019-04-23 02:40:12 15.8 28 24
003A58DE 2019-04-23 02:08:42 15.8 28 24
003A58DE 2019-04-23 01:37:12 15.8 28 23.9
003A58DE 2019-04-23 01:05:42 15.8 28 23.9
003A58DE 2019-04-23 00:34:11 15.8 28 24
003A58DE 2019-04-23 00:02:41 15.9 28 24
003A58DE 2019-04-22 23:31:13 15.9 28 23.9
003A58DE 2019-04-22 22:59:40 16 28 23.9
003A58DE 2019-04-22 22:28:12 16 28 23.9
003A58DE 2019-04-22 21:56:39 16 28 24
003A58DE 2019-04-22 21:25:09 16 28 24
003A58DE 2019-04-22 20:53:38 16 28 24.1
003A58DE 2019-04-22 20:22:09 16 28 24.1
003A58DE 2019-04-22 19:50:38 16.1 28 24.1
003A58DE 2019-04-22 19:19:08 16.1 28 24.1
003A58DE 2019-04-22 18:47:36 16.1 28 24.1
003A58DE 2019-04-22 18:16:05 16.1 28 24
003A58DE 2019-04-22 17:44:35 16.1 28 23.9
003A58DE 2019-04-22 17:13:07 16 28 23.8
003A58DE 2019-04-22 16:41:36 16 28 23.7
003A58DE 2019-04-22 16:10:05 16 28 23.8
003A58DE 2019-04-22 15:38:34 16 28 23.7
003A58DE 2019-04-22 15:07:04 16 28 23.7
003A58DE 2019-04-22 14:35:34 16 27 23.7
003A58DE 2019-04-22 14:04:03 15.9 27 23
003A58DE 2019-04-22 13:32:33 16 27 23
003A58DE 2019-04-22 13:01:03 15.9 27 22.9
003A58DE 2019-04-22 12:29:34 15.8 27 23
003A58DE 2019-04-22 11:58:04 15.9 27 23
003A58DE 2019-04-22 11:26:34 15.8 27 23
003A58DE 2019-04-22 10:55:02 15.8 27 22.9
003A58DE 2019-04-22 10:23:31 15.8 27 22.8
003A58DE 2019-04-22 09:52:00 15.8 27 22.9
003A58DE 2019-04-22 09:20:28 15.8 27 22.9
003A58DE 2019-04-22 08:48:58 15.8 27 22.9
003A58DE 2019-04-22 08:17:26 15.8 27 22.9
003A58DE 2019-04-22 07:45:54 15.8 27 22.9
003A58DE 2019-04-22 07:14:23 15.8 27 22.9
003A58DE 2019-04-22 06:42:52 15.8 27 23.5
003A58DE 2019-04-22 06:11:21 15.8 27 23.5
003A58DE 2019-04-22 05:39:49 15.8 27 23.6
003A58DE 2019-04-22 05:08:21 15.8 27 23.6
003A58DE 2019-04-22 04:36:48 15.8 27 23.6
003A58DE 2019-04-22 04:05:16 15.8 27 23.7
003A58DE 2019-04-22 03:33:44 15.8 27 23.7
003A58DE 2019-04-22 03:02:13 15.8 27 23.7
003A58DE 2019-04-22 02:30:42 15.7 27 23.6
003A58DE 2019-04-22 01:59:10 15.8 27 23.6
003A58DE 2019-04-22 01:27:38 15.6 27 23.6
003A58DE 2019-04-22 00:56:08 15.6 27 23.6
003A58DE 2019-04-22 00:24:37 15.6 27 23.6
003A58DE 2019-04-21 23:53:07 15.6 27 23.7
003A58DE 2019-04-21 23:21:35 15.6 27 23.7
003A58DE 2019-04-21 22:50:03 15.6 27 23.7
003A58DE 2019-04-21 22:18:31 15.6 27 23.9
003A58DE 2019-04-21 21:46:59 15.6 27 23.9
003A58DE 2019-04-21 21:15:27 15.6 27 23.9
003A58DE 2019-04-21 20:43:55 15.6 27 23.8
003A58DE 2019-04-21 20:12:23 15.6 27 23.7
003A58DE 2019-04-21 19:40:51 15.6 27 23.6
003A58DE 2019-04-21 19:09:19 15.6 27 23.6
003A58DE 2019-04-21 18:37:48 15.6 27 23.6
003A58DE 2019-04-21 18:06:16 15.6 26 22.8
003A58DE 2019-04-21 17:34:45 15.6 26 22.7
003A58DE 2019-04-21 17:03:15 15.6 26 22.7
003A58DE 2019-04-21 16:31:44 15.6 26 22.6
003A58DE 2019-04-21 16:00:14 15.6 26 22.7
003A58DE 2019-04-21 15:28:44 15.6 26 22.8
003A58DE 2019-04-21 14:57:14 15.6 26 22.6
003A58DE 2019-04-21 14:25:44 15.6 26 22.5
003A58DE 2019-04-21 13:54:16 15.6 26 22.8
003A58DE 2019-04-21 13:22:44 15.6 26 22.8
003A58DE 2019-04-21 12:51:13 15.6 26 22.7
003A58DE 2019-04-21 12:19:43 15.6 26 22.8
003A58DE 2019-04-21 11:48:12 15.6 26 22.8
003A58DE 2019-04-21 11:16:42 15.6 26 22.6
003A58DE 2019-04-21 10:45:11 15.6 26 22.6
003A58DE 2019-04-21 10:13:41 15.8 26 22.6
003A58DE 2019-04-21 09:42:11 15.8 26 22.6
003A58DE 2019-04-21 09:10:40 15.8 26 22.6
003A58DE 2019-04-21 08:39:09 15.8 26 22.7
003A58DE 2019-04-21 08:07:40 15.8 26 22.8
003A58DE 2019-04-21 07:36:09 15.8 26 23
003A58DE 2019-04-21 07:04:38 15.8 26 23
003A58DE 2019-04-21 06:33:07 15.8 26 22.9
003A58DE 2019-04-21 06:01:37 15.8 26 22.9
003A58DE 2019-04-21 05:30:06 15.8 26 22.9
003A58DE 2019-04-21 04:58:36 15.8 26 22.9
003A58DE 2019-04-21 04:27:04 15.8 26 23
003A58DE 2019-04-21 03:55:34 15.8 26 23
003A58DE 2019-04-21 03:24:04 15.8 26 22.9
003A58DE 2019-04-21 02:52:37 15.8 26 23
003A58DE 2019-04-21 02:21:03 15.8 26 22.9
003A58DE 2019-04-21 01:49:36 15.7 26 23
003A58DE 2019-04-21 01:18:04 15.7 26 22.8
003A58DE 2019-04-21 00:46:33 15.7 26 22.5
003A58DE 2019-04-21 00:15:03 15.7 26 22.6
003A58DE 2019-04-20 23:43:32 15.7 26 22.6
003A58DE 2019-04-20 23:12:02 15.6 26 22.5
003A58DE 2019-04-20 22:40:31 15.6 26 22.5
003A58DE 2019-04-20 22:09:00 15.7 25 22.5
003A58DE 2019-04-20 21:37:28 15.6 26 22.4
003A58DE 2019-04-20 21:05:59 15.8 25 22.3
003A58DE 2019-04-20 20:34:28 15.7 25 22.2
003A58DE 2019-04-20 20:02:58 15.8 25 22.1
003A58DE 2019-04-20 19:31:28 15.8 25 22
003A58DE 2019-04-20 18:59:58 15.8 25 21.9
003A58DE 2019-04-20 18:28:27 15.7 25 21.9
003A58DE 2019-04-20 17:56:57 15.6 25 21.7
003A58DE 2019-04-20 17:25:27 15.7 25 21.8
003A58DE 2019-04-20 16:53:57 15.7 25 21.9
003A58DE 2019-04-20 16:22:27 15.7 25 22
003A58DE 2019-04-20 15:50:56 15.7 25 21.9
003A58DE 2019-04-20 15:19:26 15.6 25 21.9
003A58DE 2019-04-20 14:47:57 15.6 25 22
003A58DE 2019-04-20 14:16:27 15.6 25 22
003A58DE 2019-04-20 13:44:57 15.6 25 22
003A58DE 2019-04-20 13:13:27 15.6 25 22.1
003A58DE 2019-04-20 12:41:57 15.7 25 22.1
003A58DE 2019-04-20 12:10:27 15.7 25 22.4
003A58DE 2019-04-20 11:38:57 15.7 25 22.4
003A58DE 2019-04-20 11:07:28 15.8 25 22.2
003A58DE 2019-04-20 10:35:57 15.8 25 22.3
003A58DE 2019-04-20 10:04:28 15.8 25 22.2
003A58DE 2019-04-20 09:32:59 15.8 25 22.3
003A58DE 2019-04-20 09:01:29 15.8 25 22.4
003A58DE 2019-04-20 08:29:59 15.8 25 22.5
003A58DE 2019-04-20 07:58:29 15.8 25 22.6
003A58DE 2019-04-20 07:27:00 15.9 25 22.5
003A58DE 2019-04-20 06:55:30 15.8 25 22.5
003A58DE 2019-04-20 06:24:01 15.8 25 22.6
003A58DE 2019-04-20 05:52:30 15.9 25 22.7
003A58DE 2019-04-20 05:20:59 15.8 25 22.8
003A58DE 2019-04-20 04:49:28 15.8 24 22.8
003A58DE 2019-04-20 04:17:58 16 25 22.8
003A58DE 2019-04-20 03:46:27 16 24 22.9
003A58DE 2019-04-20 03:14:57 16.1 24 22.8
003A58DE 2019-04-20 02:43:28 16 24 22.8
003A58DE 2019-04-20 02:11:58 16 24 22.9
003A58DE 2019-04-20 01:40:27 16 24 23.1
003A58DE 2019-04-20 01:08:56 16 24 23
003A58DE 2019-04-20 00:37:25 16.1 24 23.1
003A58DE 2019-04-20 00:05:55 16.2 24 23.1
003A58DE 2019-04-19 23:34:24 16.3 24 23.2
003A58DE 2019-04-19 23:02:54 16.3 24 23.1
003A58DE 2019-04-19 22:31:23 16.3 24 23.3
003A58DE 2019-04-19 21:59:53 16.3 24 23.3
003A58DE 2019-04-19 21:28:25 16.3 24 23.3
003A58DE 2019-04-19 20:56:52 16.3 24 23.2
003A58DE 2019-04-19 20:25:21 16.3 24 23.2
003A58DE 2019-04-19 19:53:50 16.3 24 23.3
003A58DE 2019-04-19 19:22:19 16.4 24 23.2
003A58DE 2019-04-19 18:50:49 16.3 24 23.3
003A58DE 2019-04-19 18:19:19 16.3 24 23.3
003A58DE 2019-04-19 17:47:48 16.3 24 23.3
003A58DE 2019-04-19 17:16:18 16.3 24 23.3
003A58DE 2019-04-19 16:44:48 16.3 24 23.4
003A58DE 2019-04-19 16:13:18 16.3 24 23.4
003A58DE 2019-04-19 15:41:49 16.1 24 23.4
003A58DE 2019-04-19 15:10:18 16.1 24 23.4
003A58DE 2019-04-19 14:38:48 16.1 24 23.4
003A58DE 2019-04-19 14:07:17 16 24 23.6
003A58DE 2019-04-19 13:35:47 16 24 23.4
003A58DE 2019-04-19 13:04:15 16 24 23.3
003A58DE 2019-04-19 12:32:44 16 24 23.3
003A58DE 2019-04-19 12:01:13 16 24 23.3
003A58DE 2019-04-19 11:29:42 16 24 23.3
003A58DE 2019-04-19 10:58:12 16 24 23.2
003A58DE 2019-04-19 10:26:41 16 24 23.2
003A58DE 2019-04-19 09:55:10 16 24 23.1
003A58DE 2019-04-19 09:23:39 16 24 23.1
003A58DE 2019-04-19 08:52:08 16 24 23.1
003A58DE 2019-04-19 08:20:37 16 23 23.1
003A58DE 2019-04-19 07:49:06 16 23 23.2
003A58DE 2019-04-19 07:17:35 16 23 23.3
003A58DE 2019-04-19 06:46:04 16 23 23.3
003A58DE 2019-04-19 06:14:34 16.1 23 23.5
003A58DE 2019-04-19 05:43:02 16.1 23 23.7
003A58DE 2019-04-19 05:11:30 16 23 23.7
003A58DE 2019-04-19 04:39:58 16.2 23 23.6
003A58DE 2019-04-19 04:08:27 16.2 23 23.5
003A58DE 2019-04-19 03:36:56 16.3 23 23.4
003A58DE 2019-04-19 03:05:24 16.3 23 23.5
003A58DE 2019-04-19 02:33:54 16.3 23 23.4
003A58DE 2019-04-19 02:02:24 16.3 23 23.4
003A58DE 2019-04-19 01:30:53 16.5 23 23.5
003A58DE 2019-04-19 00:59:21 16.5 23 23.6
003A58DE 2019-04-19 00:27:50 16.5 23 23.9
003A58DE 2019-04-18 23:56:19 16.7 23 23.9
003A58DE 2019-04-18 23:24:49 16.7 23 24.1
003A58DE 2019-04-18 22:53:19 16.7 23 24.2
003A58DE 2019-04-18 22:21:49 16.7 23 24.2
003A58DE 2019-04-18 21:50:18 16.7 23 24.2
003A58DE 2019-04-18 21:18:48 16.7 23 24.1
003A58DE 2019-04-18 20:47:18 16.7 23 24.3
003A58DE 2019-04-18 20:15:48 16.7 23 24.4
003A58DE 2019-04-18 19:44:18 16.7 23 24.4
003A58DE 2019-04-18 19:12:48 16.7 23 24.5
003A58DE 2019-04-18 18:41:19 16.7 23 24.5
003A58DE 2019-04-18 18:09:48 16.7 23 24.5
003A58DE 2019-04-18 17:38:18 16.7 23 24.4
003A58DE 2019-04-18 17:06:47 16.7 23 24.3
003A58DE 2019-04-18 16:35:16 16.7 23 24.2
003A58DE 2019-04-18 16:03:46 16.5 23 24.3
003A58DE 2019-04-18 15:32:15 16.5 23 24.4
003A58DE 2019-04-18 15:00:45 16.5 23 24.5
003A58DE 2019-04-18 14:29:14 16.3 23 24.6
003A58DE 2019-04-18 13:57:45 16.3 23 24.6
003A58DE 2019-04-18 13:26:15 16.3 23 24.8
003A58DE 2019-04-18 12:54:46 16.3 23 25
003A58DE 2019-04-18 12:23:17 16.3 22 24.9
003A58DE 2019-04-18 11:51:47 16.3 22 24.9
003A58DE 2019-04-18 11:20:17 16.3 22 24.8
003A58DE 2019-04-18 10:48:47 16.3 22 24.9
003A58DE 2019-04-18 10:17:17 16.3 22 24.7
003A58DE 2019-04-18 09:45:47 16.3 22 24.7
003A58DE 2019-04-18 09:14:18 16.3 22 24.8
003A58DE 2019-04-18 08:42:48 16.4 22 25
003A58DE 2019-04-18 08:11:19 16.4 22 25.2
003A58DE 2019-04-18 07:39:51 16.3 22 25.1
003A58DE 2019-04-18 07:08:21 16.3 22 25.2
003A58DE 2019-04-18 06:36:51 16.3 22 25.1
003A58DE 2019-04-18 06:05:22 16.3 22 25.1
003A58DE 2019-04-18 05:33:53 16.3 22 25.2
003A58DE 2019-04-18 05:02:23 16.3 22 25.1
003A58DE 2019-04-18 04:30:54 16.3 22 25.1
003A58DE 2019-04-18 03:59:25 16.3 22 25.2
003A58DE 2019-04-18 03:27:56 16.4 22 25.1
003A58DE 2019-04-18 02:56:26 16.4 22 24.9
003A58DE 2019-04-18 02:24:54 16.5 22 24.9
003A58DE 2019-04-18 01:53:27 16.5 22 24.8
003A58DE 2019-04-18 01:21:56 16.7 22 24.7
003A58DE 2019-04-18 00:50:26 16.7 22 24.6
003A58DE 2019-04-18 00:18:56 16.7 22 24.3
003A58DE 2019-04-17 23:47:27 16.8 22 24.1
003A58DE 2019-04-17 23:15:58 16.8 22 23.9
003A58DE 2019-04-17 22:44:28 16.8 22 24.4
003A58DE 2019-04-17 22:12:59 16.7 22 24.4
003A58DE 2019-04-17 21:41:30 16.7 22 24.2
003A58DE 2019-04-17 21:10:00 16.7 21 24
003A58DE 2019-04-17 20:38:30 16.7 21 23.8
003A58DE 2019-04-17 20:06:59 16.7 21 23.6
003A58DE 2019-04-17 19:35:28 16.7 21 23.4
003A58DE 2019-04-17 19:03:59 16.7 21 23.4
003A58DE 2019-04-17 18:32:29 16.7 21 23.1
003A58DE 2019-04-17 18:00:59 16.7 21 22.8
003A58DE 2019-04-17 17:29:29 16.6 21 23
003A58DE 2019-04-17 16:57:59 16.5 21 22.8
003A58DE 2019-04-17 16:26:29 16.5 21 22.3
003A58DE 2019-04-17 15:54:59 16.6 21 22.4
003A58DE 2019-04-17 15:23:28 16.7 21 22.3
003A58DE 2019-04-17 14:51:57 16.7 21 22
003A58DE 2019-04-17 14:20:26 16.8 21 22.1
003A58DE 2019-04-17 13:49:01 16.9 21 22.2
003A58DE 2019-04-17 13:17:28 16.9 21 22.1
003A58DE 2019-04-17 12:45:58 16.9 21 22.2
003A58DE 2019-04-17 12:14:28 16.9 21 22.2
003A58DE 2019-04-17 11:42:58 16.9 21 22.1
003A58DE 2019-04-17 11:11:28 16.9 21 22
003A58DE 2019-04-17 10:39:59 16.9 20 21.9
003A58DE 2019-04-17 10:08:28 16.9 20 21.9
003A58DE 2019-04-17 09:36:59 17 20 20.7
003A58DE 2019-04-17 09:05:30 17.1 20 20.3
003A58DE 2019-04-17 08:34:00 17.3 20 20.4
003A58DE 2019-04-17 08:02:31 17.5 20 20.3
003A58DE 2019-04-17 07:31:02 17.5 20 20.5
003A58DE 2019-04-17 06:59:33 17.6 20 20.3
003A58DE 2019-04-17 06:28:04 17.8 20 20.3
003A58DE 2019-04-17 05:56:36 17.8 20 20.3
003A58DE 2019-04-17 05:25:08 17.8 20 20.5
003A58DE 2019-04-17 04:53:40 17.8 20 20.7
003A58DE 2019-04-17 04:22:11 17.8 20 20.8
003A58DE 2019-04-17 03:50:43 18 20 20.7
003A58DE 2019-04-17 03:19:15 18 20 20.7
003A58DE 2019-04-17 02:47:47 18 20 20.5
003A58DE 2019-04-17 02:16:18 18 20 20.3
003A58DE 2019-04-17 01:44:50 18 20 20.4
003A58DE 2019-04-17 01:13:21 18 20 20.2
003A58DE 2019-04-17 00:41:53 18 20 20.2
003A58DE 2019-04-17 00:10:25 18 20 20.1
003A58DE 2019-04-16 23:38:57 18.2 20 19.9
003A58DE 2019-04-16 23:07:30 18.2 19 19.6
003A58DE 2019-04-16 22:36:02 18.6 20 19.9
003A58DE 2019-04-16 22:04:33 18.8 20 19.8
003A58DE 2019-04-16 21:33:05 18.8 20 19.7
003A58DE 2019-04-16 21:01:37 19 20 19.7
003A58DE 2019-04-16 20:30:08 19 20 19.7
003A58DE 2019-04-16 19:58:42 19.1 20 19.7
003A58DE 2019-04-16 19:27:13 19.2 20 19.7
003A58DE 2019-04-16 18:55:45 19.2 20 19.6
003A58DE 2019-04-16 18:24:16 19.4 20 19.4
003A58DE 2019-04-16 17:52:48 19.5 19 19.5
003A58DE 2019-04-16 16:49:53 19.9 19 19.4
003A58DE 2019-04-16 16:18:24 20.1 19 18.8
003A58DE 2019-04-16 15:46:56 20.3 19 18.5
003A58DE 2019-04-16 15:15:28 20.7 19 18.1
003A58DE 2019-04-16 14:44:01 21 20 17.2
003A58DE 2019-04-16 13:41:06 21.2 20 16.9
003A58DE 2019-04-16 13:09:40 21.2 20 16.8
003A58DE 2019-04-16 12:38:11 21.2 20 17.2
003A58DE 2019-04-16 12:06:43 21.2 20 17.4
003A58DE 2019-04-16 11:35:17 21.1 20 17
003A58DE 2019-04-16 11:03:47 21.1 20 17.2
003A58DE 2019-04-16 10:32:19 21 20 16.9
003A58DE 2019-04-16 10:00:51 21.1 20 16.9
003A58DE 2019-04-16 09:29:26 21 20 16.7
003A58DE 2019-04-16 08:57:54 21.1 20 16.8
003A58DE 2019-04-16 08:26:26 21 20 16.6
003A58DE 2019-04-16 07:55:00 21 20 16.6
003A58DE 2019-04-16 07:23:31 21.1 20 16.8
003A58DE 2019-04-16 06:52:02 21.1 20 16.8
003A58DE 2019-04-16 06:20:34 21.1 20 16.9
003A58DE 2019-04-16 05:49:09 21.1 20 16.5
003A58DE 2019-04-16 05:17:38 21.2 20 16.3
003A58DE 2019-04-16 04:46:09 21.2 20 16.3
003A58DE 2019-04-16 04:14:43 21.2 20 16.4
003A58DE 2019-04-16 03:43:16 21.2 20 16.3
003A58DE 2019-04-16 03:11:44 21.2 20 16.6
003A58DE 2019-04-16 02:40:19 21.2 19 16.9
003A58DE 2019-04-16 02:08:47 21.2 19 16.8
003A58DE 2019-04-16 01:37:19 21.2 19 16.8
003A58DE 2019-04-16 01:05:53 21.2 19 16.8
003A58DE 2019-04-16 00:34:22 21.2 19 17.5
003A58DE 2019-04-16 00:02:54 21.2 19 18.1
003A58DE 2019-04-15 23:31:26 21.2 19 19.1
003A58DE 2019-04-15 22:59:57 21.2 19 20.4
003A58DE 2019-04-15 22:28:30 21.2 19 20.7
003A58DE 2019-04-15 21:57:00 21.2 19 21.1
003A58DE 2019-04-15 21:25:31 21.3 19 21.4
003A58DE 2019-04-15 20:54:04 21.4 19 21.7
003A58DE 2019-04-15 20:22:37 21.3 19 22.7
003A58DE 2019-04-15 19:51:13 21.4 19 23
003A58DE 2019-04-15 19:19:43 21.4 19 23.7
003A58DE 2019-04-15 18:48:16 21.4 19 24
003A58DE 2019-04-15 18:16:48 21.4 18 24.4
003A58DE 2019-04-15 17:45:25 21.6 18 24.7
003A58DE 2019-04-15 17:13:57 21.6 18 24.9
003A58DE 2019-04-15 16:42:25 21.6 18 25.1
003A58DE 2019-04-15 16:10:58 21.8 18 25.3
003A58DE 2019-04-15 15:08:02 22 18 25.6
003A58DE 2019-04-15 14:36:37 22 18 25.7
003A58DE 2019-04-15 14:05:08 22.2 18 25.8
003A58DE 2019-04-15 13:33:43 22.4 18 25.9
003A58DE 2019-04-15 13:02:16 22.5 17 25.9
003A58DE 2019-04-15 12:30:47 22.6 17 26.1
003A58DE 2019-04-15 11:59:20 22.5 17 26.1
003A58DE 2019-04-15 11:27:54 22.5 15 26.4
003A58DE 2019-04-15 10:56:27 22.5 16 26.3
003A58DE 2019-04-15 10:25:00 22.4 16 26.2
003A58DE 2019-04-15 09:53:33 22.2 16 26.4
003A58DE 2019-04-15 09:22:06 22.3 16 26.6
003A58DE 2019-04-15 08:50:38 22.2 16 26.7
003A58DE 2019-04-15 08:19:12 22.1 16 26.8
003A58DE 2019-04-15 07:47:44 22 16 26.8
003A58DE 2019-04-15 07:16:16 22 16 26.9
003A58DE 2019-04-15 06:44:47 22 16 26.7
003A58DE 2019-04-15 06:13:19 22 16 26.8
003A58DE 2019-04-15 05:41:52 22 16 26.6
003A58DE 2019-04-15 05:10:24 21.9 17 26.6
003A58DE 2019-04-15 04:38:56 21.9 17 26.5
003A58DE 2019-04-15 04:07:29 21.9 17 26.3
003A58DE 2019-04-15 03:36:01 21.9 17 26.3
003A58DE 2019-04-15 03:04:33 22 17 26.3
003A58DE 2019-04-15 02:33:05 21.9 17 26.5
003A58DE 2019-04-15 02:01:38 22 17 26.3
003A58DE 2019-04-15 01:30:10 21.9 17 26.2
003A58DE 2019-04-15 00:58:43 22 17 26.5
003A58DE 2019-04-15 00:27:16 22 17 26.5
003A58DE 2019-04-14 23:55:48 21.9 17 26.6
003A58DE 2019-04-14 23:24:21 22 17 26.6
003A58DE 2019-04-14 22:52:54 22 17 26.8
003A58DE 2019-04-14 22:21:26 22 17 26.5
003A58DE 2019-04-14 21:49:58 22 18 26.6
003A58DE 2019-04-14 21:18:30 22 18 26.7
003A58DE 2019-04-14 20:47:01 22 18 26.6
003A58DE 2019-04-14 20:15:33 22 18 26.4
003A58DE 2019-04-14 19:44:04 22 18 26.3
003A58DE 2019-04-14 19:12:37 22.1 18 26.4
003A58DE 2019-04-14 18:41:09 22 17 26.6
003A58DE 2019-04-14 18:09:41 22 17 26.5
003A58DE 2019-04-14 17:38:13 22 17 26.5
003A58DE 2019-04-14 17:06:43 22 17 26.4
003A58DE 2019-04-14 16:35:15 22.1 17 26.4
003A58DE 2019-04-14 16:03:45 22 17 26.5
003A58DE 2019-04-14 15:32:17 22 17 26.6
003A58DE 2019-04-14 15:00:48 22 17 26.6
003A58DE 2019-04-14 14:29:18 22 17 26.9
003A58DE 2019-04-14 13:57:49 22 17 26.9
003A58DE 2019-04-14 13:26:20 22 18 26.8
003A58DE 2019-04-14 12:54:50 22 18 26.9
003A58DE 2019-04-14 12:23:22 22 18 26.9
003A58DE 2019-04-14 11:51:53 22.1 18 26.9
003A58DE 2019-04-14 11:20:25 22 18 26.8
003A58DE 2019-04-14 10:48:57 22 18 26.9
003A58DE 2019-04-14 10:17:27 22 18 27
003A58DE 2019-04-14 09:45:57 22 18 26.9
003A58DE 2019-04-14 09:14:29 22 18 27
003A58DE 2019-04-14 08:43:02 22 17 27
003A58DE 2019-04-14 08:11:32 22 17 27
003A58DE 2019-04-14 07:40:03 22 17 26.9
003A58DE 2019-04-14 07:08:34 22 17 26.9
003A58DE 2019-04-14 06:37:05 22 17 26.9
003A58DE 2019-04-14 06:05:34 22 17 26.9
003A58DE 2019-04-14 05:34:05 22 17 26.7
003A58DE 2019-04-14 05:02:35 22 17 26.8
003A58DE 2019-04-14 04:31:05 22 17 26.6
003A58DE 2019-04-14 03:59:35 22 17 26.7
003A58DE 2019-04-14 03:28:04 22 17 26.6
003A58DE 2019-04-14 02:56:35 22.1 17 26.5
003A58DE 2019-04-14 02:25:05 22 17 26.3
003A58DE 2019-04-14 01:53:35 22 17 26.3
003A58DE 2019-04-14 01:22:05 22 17 26
003A58DE 2019-04-14 00:50:37 22.1 17 25.9
003A58DE 2019-04-14 00:19:08 22.2 17 25.9
003A58DE 2019-04-13 23:47:37 22.2 17 26
003A58DE 2019-04-13 23:16:07 22.2 17 26
003A58DE 2019-04-13 22:44:38 22.2 17 26
003A58DE 2019-04-13 22:13:09 22.2 17 26.3
003A58DE 2019-04-13 21:41:41 22.2 17 26.3
003A58DE 2019-04-13 21:10:12 22.2 17 26.2
003A58DE 2019-04-13 20:38:43 22.2 17 26.2
003A58DE 2019-04-13 20:07:15 22.2 17 26.2
003A58DE 2019-04-13 19:35:45 22.2 17 26.2
003A58DE 2019-04-13 19:04:17 22.3 17 26
003A58DE 2019-04-13 18:32:49 22.3 17 26.3
003A58DE 2019-04-13 18:01:21 22.3 17 26.4
003A58DE 2019-04-13 17:29:52 22.4 17 26.4
003A58DE 2019-04-13 16:58:24 22.4 17 26.4
003A58DE 2019-04-13 16:26:56 22.4 17 26.4
003A58DE 2019-04-13 15:55:27 22.5 17 26.3
003A58DE 2019-04-13 15:23:59 22.5 17 26.5
003A58DE 2019-04-13 14:52:32 22.5 17 26.5
003A58DE 2019-04-13 14:21:04 22.5 17 26.5
003A58DE 2019-04-13 13:49:36 22.5 17 26.4
003A58DE 2019-04-13 13:18:08 22.5 17 26.5
003A58DE 2019-04-13 12:46:41 22.5 17 26.6
003A58DE 2019-04-13 12:15:13 22.5 17 26.6
003A58DE 2019-04-13 11:43:45 22.5 17 26.5
003A58DE 2019-04-13 11:12:18 22.5 17 26.5
003A58DE 2019-04-13 10:40:51 22.5 17 26.4
003A58DE 2019-04-13 10:09:24 22.5 17 26.7
003A58DE 2019-04-13 09:37:55 22.5 17 26.5
003A58DE 2019-04-13 09:06:26 22.5 17 26.5
003A58DE 2019-04-13 08:34:59 22.5 17 26.3
003A58DE 2019-04-13 08:03:31 22.5 17 26.3
003A58DE 2019-04-13 07:32:02 22.5 17 26.4
003A58DE 2019-04-13 07:00:33 22.5 17 26.4
003A58DE 2019-04-13 06:29:04 22.5 17 26.4
003A58DE 2019-04-13 05:57:34 22.4 17 26.6
003A58DE 2019-04-13 05:26:05 22.5 17 26.4
003A58DE 2019-04-13 04:54:36 22.5 17 26.3
003A58DE 2019-04-13 04:23:07 22.5 17 26.2
003A58DE 2019-04-13 03:51:37 22.5 17 26.3
003A58DE 2019-04-13 03:20:09 22.5 17 26.6
003A58DE 2019-04-13 02:48:40 22.6 17 26.8
003A58DE 2019-04-13 02:17:10 22.6 17 26.5
003A58DE 2019-04-13 01:45:42 22.6 17 26.4
003A58DE 2019-04-13 01:14:13 22.7 17 26.6
003A58DE 2019-04-13 00:42:44 22.7 17 26.7
003A58DE 2019-04-13 00:11:15 22.7 17 26.7
003A58DE 2019-04-12 23:39:46 22.7 17 26.6
003A58DE 2019-04-12 23:08:16 22.7 17 26.8
003A58DE 2019-04-12 22:36:48 22.9 17 26.9
003A58DE 2019-04-12 22:05:19 22.9 18 27
003A58DE 2019-04-12 21:33:51 22.9 18 27
003A58DE 2019-04-12 21:02:22 22.9 18 26.8
003A58DE 2019-04-12 20:30:52 22.9 18 26.8
003A58DE 2019-04-12 19:59:23 22.9 17 26.6
003A58DE 2019-04-12 19:27:54 22.9 17 26.7
003A58DE 2019-04-12 18:56:24 23 17 26.8
003A58DE 2019-04-12 18:24:55 23.1 16 26.8
003A58DE 2019-04-12 17:53:27 23.2 16 26.9
003A58DE 2019-04-12 17:21:58 23.3 16 27
003A58DE 2019-04-12 16:50:28 23.1 16 27.1
003A58DE 2019-04-12 16:18:58 23.1 17 26.9
003A58DE 2019-04-12 15:47:28 23.1 17 27.1
003A58DE 2019-04-12 15:16:00 22.9 18 27.4
003A58DE 2019-04-12 14:44:30 22.9 18 27.5
003A58DE 2019-04-12 14:13:00 22.5 19 26.2
003A58DE 2019-04-12 13:41:29 22 20 20.8
003A58DE 2019-04-12 13:09:58 21.2 23 10.8